sat.trackr.live / text

‹ back to catalog

STARLINK-31651

NORAD 59860 · 2024-098C

PAYLOAD ACTIVE UNKNOWN

§ Identity

Operator
Country
US
Launch date
2024-05-24
Launch site
AFETR
Launch vehicle
Mass (kg)
RCS (m²)

Purposes: comms

External: N2YO · Heavens-Above · Gunter

§ Orbital elements

Epoch: 2026-05-25T04:11:17.862720Z

Period
94.27 min
Inclination
43.0004°
Eccentricity
0.0001824
Mean motion
15.27578808 rev/d
Perigee alt
481.8 km
Apogee alt
484.3 km
Semi-major
6,861.2 km
B*
6.5289e-5
RAAN
206.0418°
Arg perigee
275.7630°
Mean anomaly
84.3014°
Rev number
11,354

§ Raw data

STARLINK-316511 59860U 24098C   26145.17451230  .00001535  00000+0  65289-4 0  99992 59860  43.0004 206.0418 0001824 275.7630  84.3014 15.27578808113542

JSON: /api/v1/satellites/59860 · /tle

For live sub-satellite position, see the globe view (requires WebGL).

§ Visibility from observer

Set your observer location to see the next 7 days of passes ≥ 10°. The values pass through the URL so the page stays shareable.

No JS? Fill the form by hand. The geolocation button needs JavaScript.